681  
ASUS42 KMHX 300825  
RWRMHX  
WEATHER ROUNDUP FOR EASTERN NORTH CAROLINA  
NATIONAL WEATHER SERVICE NEWPORT/MOREHEAD CITY NC  
400 AM EDT THU MAR 30 2017  
 
NOTE: "FAIR" INDICATES FEW OR NO CLOUDS BELOW 12,000 FEET  
WITH NO SIGNIFICANT WEATHER AND/OR S TO VISIBILITY
 
 
NCZ015>017-031-032-045>047-102-103-300900-  
NORTH COAST  
 
CITY SKY/WX TMP DP RH WIND PRES REMARKS
 
EDENTON PTCLDY 43 41 93 CALM 30.15F  
ELIZABETH CITY CLEAR 45 44 97 NE3 30.14F  
KITTY HAWK NOT AVBL  
MANTEO CLEAR 46 44 93 CALM 30.14S  
 

 
 
NCZ045>047-081-094-103-104-300900-  
CENTRAL COAST  
 
CITY SKY/WX TMP DP RH WIND PRES REMARKS
 
FRISCO CLEAR 53 45 74 NE5 30.11F  
 

 
 
NCZ095-097-098-100-101-300900-  
SOUTHERN COAST  
 
CITY SKY/WX TMP DP RH WIND PRES REMARKS
 
BEAUFORT CLEAR 52 50 93 NE6 30.12S  
CEDAR ISLAND NOT AVBL  
JACKSONVILLE CLEAR 53 50 89 NE9 30.12S  
PINEY ISLAND SUNNY N/A N/A N/A NE10 30.12S  
WILMINGTON CLEAR 55 54 96 NE7 30.10F  
 

 
 
NCZ011>013-027>030-043-044-078>080-089-090>093-098-300900-  
COASTAL PLAIN  
 
CITY SKY/WX TMP DP RH WIND PRES REMARKS
 
AHOSKIE N/A 42 41 97 CALM 30.16F FOG  
CLINTON CLEAR 53 51 95 CALM 30.13S  
ELIZABETHTOWN CLEAR 54 54 100 E3 30.11S  
GOLDSBORO PTCLDY 49 49 100 CALM 30.12F  
GREENVILLE PTCLDY 46 45 93 CALM 30.16S  
HAVELOCK CLEAR 53 48 83 NE6 30.13F  
KENANSVILLE PTCLDY 46 46 100 CALM 30.13F FOG  
KINSTON CLEAR 49 47 92 CALM 30.14F  
NEW BERN CLEAR 49 48 97 CALM 30.14F  
RICHLANDS CLEAR 47 46 97 NE5 30.13F  
ROCKY MOUNT CLOUDY 51 49 92 CALM 30.16R  
WASHINGTON PTCLDY 45 44 96 CALM 30.15S  
WHITEVILLE CLEAR 57 55 95 NE7 30.09S  
 

 
 
AMZ130-135-150-152-154-156-158-170-250-252-270-ANZ085-086-088-633-658-670-300900-  
MARINE OBSERVATIONS  
 
STATION/POSITION TIME TEMP WIND PRES WAVE SWELL
 
AIR SEA DIR/SP/G HT/PER HT/PER  
(UTC) (F) (DEG/KT/KT) (MB) (FT/S) (FT/S)  
CHESAPEAKE LIGHT NOT AVBL  
64 E VA BEACH 0750 49 51 10/ 10/ 12 1020.5 5/ 9 5/ 9  
DUCK 0800 49 50 20/ 5/ 6 1019.9  
2 E DUCK 0800 50 N/A 4/ 8 2/11  
OREGON INLET 0800 48 56 360/ 5/ 6 1020.3  
13E OREGON INLT 0748 50 N/A 5/ 8 5/ 8  
HATTERAS CG 0800 55 60 60/ 4/ 8 1019.1  
DIAMOND BUOY 0750 63 76 50/ 14/ 17 1019.0 7/ 9 5/ 9  
CAPE LOOKOUT 0800 62 60/ 14/ 15 1019.2  
BEAUFORT LAB 0800 52 62 30/ 5/ 7 1018.9  
30 SE NEW RVR IN 0708 63 80/ 12/ 16 1019.5  
30 SE NEW RVR IN 0813 63 N/A 6/10 2/11  
27 SE WRIGHTSVLE 0708 66 73 90/ 14/ 21 1018.7  
5 SE WRIGHTSVLE 0708 60 58 90/ 12/ 16 1019.3  
225 S CAPE HAT 0750 68 72 60/ 14/ 17 1017.4 6/ 9 5/ 9  
41 SE CHARLESTON 0750 71 70 80/ 14/ 17 1016.0 5/ 9 3/ 9  
 

 
 
 
CLICK HERE TO GO TO PREVIOUS BULLETINS.

The Nexlab NC Page Main Text Page